Regional Weather Roundup
Issued by NWS Green Bay, WI

Home | Current Version | Previous Version | Graphics & Text | Print | Product List | Glossary Off
Versions: 1 2 3 4 5 6 7 8 9 10 11 12 13 14 15 16 17 18 19 20 21 22 23 24 25 26 27 28 29 30 31 32 33 34 35 36 37 38 39 40 41 42 43 44 45 46 47 48 49 50

000
ASUS43 KGRB 291911
RWRGRB

NORTH-CENTRAL AND NORTHEAST WISCONSIN REGIONAL WEATHER ROUNDUP
NATIONAL WEATHER SERVICE GREEN BAY WI
200 PM CDT SAT AUG 29 2015

WIZ005-009-010>012-018-019-292000-
NORTH CENTRAL WISCONSIN

CITY           SKY/WX    TMP DP  RH WIND       PRES   REMARKS
IRONWOOD       CLOUDY    73  63  68 W5        30.01S
MANITOWISH WTR MOSUNNY   74  58  56 S3        30.06S
ARBOR VITAE    SUNNY     75  63  64 S7        30.06S
EAGLE RIVER    PTSUNNY   73  55  52 CALM      30.06S
LAND O LAKES   MOSUNNY   76  56  50 SE3       30.06F
RHINELANDER    MOSUNNY   70  58  65 SW6       30.08F
PHILLIPS       SUNNY     73  61  65 SW5       30.06S
ANTIGO         CLOUDY    66  60  79 S3        30.09S
TOMAHAWK       MOSUNNY   68  59  72 SE3       30.08F
MERRILL        CLOUDY    66  60  81 CALM      30.09S
$$

WIZ013-073-292000-
NORTHEAST WISCONSIN

CITY           SKY/WX    TMP DP  RH WIND       PRES   REMARKS
IRON MOUNTAIN  CLOUDY    73  59  61 VRB3      30.04F
MARINETTE      CLOUDY    66  59  77 SW6       30.06F
OCONTO         CLOUDY    65  64  96 S5        30.07S
$$

WIZ017-030-035>037-045-292000-
CENTRAL WISCONSIN

CITY           SKY/WX    TMP DP  RH WIND       PRES   REMARKS
MEDFORD        CLOUDY    65  60  81 CALM      30.08S
WAUSAU         CLOUDY    65  59  81 CALM      30.06S
MOSINEE        CLOUDY    63  61  94 CALM      30.09S
MARSHFIELD     CLOUDY    66  58  75 E6        30.08S
WISC RAPIDS    NOT AVBL
STEVENS POINT  CLOUDY    62  59  89 E6        30.08S
WAUPACA        CLOUDY    69  63  80 N3        30.06F
SHAWANO        CLOUDY    68  61  77 NE3       30.07F
CLINTONVILLE   CLOUDY    64  61  88 CALM      30.07S
WAUTOMA        CLOUDY    68  63  84 E5        30.06S
$$

WIZ038-039-048-051-292000-
FOX VALLEY

CITY           SKY/WX    TMP DP  RH WIND       PRES   REMARKS
NWS GREEN BAY  CLOUDY    71  62  73 CALM      30.06F
APPLETON       CLOUDY    68  59  73 CALM      30.05F
OSHKOSH        CLOUDY    67  61  81 E5        30.05S
FOND DU LAC    CLOUDY    69  62  78 CALM      30.05F
$$

WIZ022-050-052-292000-
EAST CENTRAL WISCONSIN

CITY           SKY/WX    TMP DP  RH WIND       PRES   REMARKS
EPHRAIM        CLOUDY    67  60  78 S5        30.07S
STURGEON BAY   CLOUDY    66  61  82 S10       30.09S
MANITOWOC      CLOUDY    67  61  81 MISG      30.07S
SHEBOYGAN      CLOUDY    67  62  84 S6        30.06F
$$

LMZ563-521-522-541>543-292000-
LAKESHORE

STATION/POSITION TIME  TEMP    WIND        PRES    VSBY  WAVE
                       AIR SEA DIR/SP/G                  HT/PER
                 (UTC) (F)     (DEG/KT/KT) (MB)    (MI)  (FT/S)
SHEBOYGAN LKSHOR 1900   60     150/  8/  8 1018.2F
ALGOMA MARINA    1814             CALM       N/A
NORTHPORT PIER   1800   63     140/  9/ 13 1018.3F
N MID LAKE BUOY  1850   63 65  210/  6/  8 1018.2R         1
SISTER BAY LKSHO 1804   69     190/ 13/ 15   N/A
CHAMBERS ISLAND  1800   63     250/  5/  9 1018.3F
$$



USA.gov is the U.S. government's official web portal to all federal, state and local government web resources and services.